This demonstration page uses our WeatherBlox Daily Observations layout. Learn more.

Left ArrowRight Arrow

Hourly Observations for May 2, 2015

Temp ( °F °C ) Dew Point ( °F °C ) Humidity (%) Winds ( mph kmh ) Pressure ( in mb ) Visibility ( mi km ) Precip ( " mm )
12:15 am 00:15 Cloudy 55 13 50 10 82 82 SW 5 7 29.97 1015 10 16 N/A
12:35 am 00:35 Cloudy 55 13 50 10 82 82 S 3 6 29.97 1015 10 16 N/A
12:55 am 00:55 Cloudy 55 13 50 10 82 82 S 3 6 29.97 1015 10 16 N/A
1:15 am 01:15 Cloudy 55 13 50 10 82 82 N N/A 29.97 1015 10 16 N/A
1:35 am 01:35 Cloudy 54 12 50 10 88 88 S 3 6 29.97 1015 10 16 N/A
1:55 am 01:55 Cloudy 54 12 50 10 88 88 N N/A 29.97 1015 10 16 N/A
2:15 am 02:15 Cloudy 52 11 50 10 94 94 N N/A 29.97 1015 10 16 N/A
2:35 am 02:35 Cloudy 52 11 50 10 94 94 N N/A 29.97 1015 10 16 N/A
2:55 am 02:55 Cloudy 54 12 50 10 88 88 N N/A 29.97 1015 10 16 N/A
3:15 am 03:15 Cloudy 52 11 50 10 94 94 N N/A 29.97 1015 10 16 N/A
3:35 am 03:35 Cloudy 54 12 50 10 88 88 SSW 6 9 29.97 1015 10 16 N/A
3:55 am 03:55 Cloudy 54 12 50 10 88 88 N N/A 29.97 1015 10 16 N/A
4:15 am 04:15 Cloudy 52 11 50 10 94 94 N N/A 29.97 1015 10 16 N/A
4:35 am 04:35 Cloudy 52 11 50 10 94 94 N N/A 29.97 1015 10 16 N/A
4:55 am 04:55 Cloudy 52 11 52 11 100 100 W 3 6 29.97 1015 10 16 N/A
5:15 am 05:15 Cloudy 52 11 52 11 100 100 N N/A 29.97 1015 10 16 N/A
5:35 am 05:35 Cloudy 52 11 52 11 100 100 WNW 5 7 29.97 1015 10 16 N/A
5:55 am 05:55 Cloudy 52 11 52 11 100 100 NW 5 7 30.00 1016 10 16 N/A
6:15 am 06:15 Cloudy 52 11 52 11 100 100 NW 3 6 30.00 1016 10 16 N/A
6:35 am 06:35 Cloudy 52 11 52 11 100 100 WNW 3 6 30.00 1016 10 16 N/A
6:55 am 06:55 Cloudy 54 12 52 11 94 94 N N/A 30.00 1016 10 16 N/A
7:15 am 07:15 Cloudy 54 12 52 11 94 94 N N/A 30.00 1016 10 16 N/A
7:35 am 07:35 Cloudy 54 12 54 12 100 100 WNW 3 6 30.03 1017 10 16 N/A
7:55 am 07:55 Cloudy 55 13 54 12 94 94 N N/A 30.03 1017 10 16 N/A
8:15 am 08:15 Mostly Cloudy 59 15 54 12 82 82 N N/A 30.03 1017 10 16 N/A
8:35 am 08:35 Mostly Cloudy 61 16 54 12 77 77 NNE 5 7 30.03 1017 10 16 N/A
8:55 am 08:55 Partly Cloudy 63 17 52 11 68 68 N 8 13 30.03 1017 10 16 N/A
9:15 am 09:15 Sunny 64 18 52 11 64 64 N 9 15 30.03 1017 10 16 N/A
9:35 am 09:35 Sunny 64 18 50 10 60 60 N 9 15 30.03 1017 10 16 N/A
9:55 am 09:55 Sunny 64 18 50 10 60 60 N 10 17 30.03 1017 10 16 N/A
10:15 am 10:15 Sunny 66 19 50 10 56 56 undefined N/A 30.03 1017 10 16 N/A
10:35 am 10:35 Sunny 68 20 46 8 46 46 N 10 17 30.03 1017 10 16 N/A
10:55 am 10:55 Sunny 68 20 46 8 46 46 NNE 7 11 30.03 1017 10 16 N/A
11:15 am 11:15 Sunny 70 21 45 7 40 40 N 10 17 30.03 1017 10 16 N/A
11:35 am 11:35 Sunny 70 21 46 8 43 43 NE 12 19 30.03 1017 10 16 N/A
11:55 am 11:55 Sunny 72 22 45 7 38 38 NNE 13 20 30.03 1017 10 16 N/A
12:15 pm 12:15 Partly Cloudy 70 21 45 7 40 40 N 12 19 30.03 1017 10 16 N/A
12:35 pm 12:35 Mostly Cloudy 68 20 48 9 49 49 NNW 8 13 30.03 1017 10 16 N/A
12:55 pm 12:55 Cloudy 68 20 48 9 49 49 NNW 8 13 30.03 1017 10 16 N/A
1:15 pm 13:15 Cloudy 68 20 50 10 53 53 NW 5 7 30.03 1017 10 16 N/A
1:35 pm 13:35 Cloudy 68 20 46 8 46 46 NNW 5 7 30.03 1017 10 16 N/A
1:55 pm 13:55 Cloudy 68 20 46 8 46 46 NW 7 11 30.03 1017 10 16 N/A
2:15 pm 14:15 Cloudy 70 21 46 8 43 43 NNW 6 9 30.03 1017 10 16 N/A
2:35 pm 14:35 Cloudy 70 21 46 8 43 43 NNW 5 7 30.03 1017 10 16 N/A
2:55 pm 14:55 Partly Cloudy 72 22 46 8 41 41 NNW 7 11 30.03 1017 10 16 N/A
3:15 pm 15:15 Partly Cloudy 72 22 45 7 38 38 N N/A 30.00 1016 10 16 N/A
3:35 pm 15:35 Sunny 73 23 46 8 38 38 NW 6 9 30.00 1016 10 16 N/A
3:55 pm 15:55 Partly Cloudy 70 21 45 7 40 40 NW 10 17 30.00 1016 10 16 N/A
4:15 pm 16:15 Cloudy 72 22 45 7 38 38 WNW 7 11 30.00 1016 10 16 N/A
4:35 pm 16:35 Partly Cloudy 73 23 46 8 38 38 NW 3 6 30.00 1016 10 16 N/A
4:55 pm 16:55 Sunny 73 23 45 7 36 36 NW 8 13 30.00 1016 10 16 N/A
5:15 pm 17:15 Sunny 73 23 45 7 36 36 WNW 6 9 30.00 1016 10 16 N/A
5:35 pm 17:35 Partly Cloudy 72 22 45 7 38 38 WNW 5 7 30.00 1016 10 16 N/A
5:55 pm 17:55 Partly Cloudy 72 22 45 7 38 38 WSW 3 6 30.00 1016 10 16 N/A
6:15 pm 18:15 Partly Cloudy 72 22 45 7 38 38 WNW 3 6 30.00 1016 10 16 N/A
6:35 pm 18:35 Partly Cloudy 72 22 45 7 38 38 W 6 9 30.00 1016 10 16 N/A
6:55 pm 18:55 Sunny 72 22 45 7 38 38 N N/A 30.00 1016 10 16 N/A
7:15 pm 19:15 Sunny 72 22 45 7 38 38 W 3 6 30.00 1016 10 16 N/A
7:35 pm 19:35 Sunny 72 22 43 6 36 36 W 5 7 30.00 1016 10 16 N/A
7:55 pm 19:55 Sunny 68 20 43 6 40 40 W 3 6 30.00 1016 10 16 N/A
8:15 pm 20:15 Clear 68 20 43 6 40 40 SW 3 6 30.00 1016 10 16 N/A
8:35 pm 20:35 Clear 63 17 45 7 52 52 SW 5 7 30.00 1016 10 16 N/A
8:55 pm 20:55 Clear 59 15 46 8 63 63 WSW 7 11 30.00 1016 10 16 N/A
9:15 pm 21:15 Clear 59 15 46 8 63 63 WSW 5 7 30.03 1017 10 16 N/A
9:35 pm 21:35 Clear 59 15 46 8 63 63 WSW 6 9 30.03 1017 10 16 N/A
9:55 pm 21:55 Clear 59 15 46 8 63 63 WSW 6 9 30.03 1017 10 16 N/A
10:15 pm 22:15 Clear 57 14 46 8 67 67 WSW 7 11 30.03 1017 10 16 N/A
10:35 pm 22:35 Clear 59 15 45 7 59 59 WSW 7 11 30.03 1017 10 16 N/A
10:55 pm 22:55 Clear 61 16 45 7 55 55 WSW 8 13 30.03 1017 10 16 N/A
11:15 pm 23:15 Clear 61 16 45 7 55 55 WSW 7 11 30.03 1017 10 16 N/A
11:35 pm 23:35 Clear 61 16 45 7 55 55 WSW 9 15 30.03 1017 10 16 N/A
11:55 pm 23:55 Clear 61 16 45 7 55 55 WSW 8 13 30.03 1017 10 16 N/A

Powered by AerisWeather